PROGRESS-MS 24 (57691 NORAD) Tracking and Keplerian Element Data

This shows tracking and keplerian element data for the satellite.

Feedback or suggestion? Click here.




ElementValue
Catalog57691
NamePROGRESS-MS 24
Epoch Orbit43425
Epoch Day12.50266145
Epoch Year2024
RAAN11.6924
Inclination51.6425
Eccentricity0.0004122
Argument of Perigee27.6393
Mean Anonmoly115.5939
Mean Motion15.50299019
Decay Rate0.00016211
L11 57691U 23125A 24012.50266145 .00016211 00000+0 28836-3 0 9999
L22 57691 51.6425 11.6924 0004122 27.6393 115.5939 15.50299019434257



Live tracking and technical data element details for PROGRESS-MS 24 (NORAD 57691). PROGRESS-MS 24 can be tracked NOW for your location showing map with azimuth and elevation plus other details from your city location.







IsCatalogInMostPopularTable: catalog: 57691, numindb: 52
Update: records affected: 1



GetName: 57691 PROGRESS-MS 24

Hit Count: updated at: Fri, 04 Oct 2024 01:40:17 GMT